Mountain Home, AR

10:35 PM CDT on June 22, 2017 (GMT -0500)
Baxter County Regional

Weather History for KBPK - October, 2012

Change the Weather History Date:

Sunday, October 28, 2012

  Actual Average (KFLP) Record (KFLP)
Temperature  
Mean Temperature 42 °F -  
Max Temperature 55 °F 66 °F 82 °F (1999)
Min Temperature 28 °F 47 °F 28 °F (2008)
Degree Days  
Heating Degree Days 24    
Moisture  
Dew Point 26 °F    
Average Humidity 60    
Maximum Humidity 92    
Minimum Humidity 27    
Precipitation  
Precipitation 0.00 in - - ()
Sea Level Pressure  
Sea Level Pressure 30.24 in    
Wind  
Wind Speed 3 mph (North)    
Max Wind Speed 9 mph    
Max Gust Speed -    
Visibility 10 miles    
Events      
Averages and records for this station are not official NWS values.
T = Trace of Precipitation, MM = Missing Value Source: NWS Daily Summary

Daily Weather History Graph

Daily Weather History Graph

Search for Another Location

Airport or City:

Trip Planner

Search our weather history database for the weather conditions in past years. The results will help you decide how hot, cold, wet, or windy it might be!

Date:

Astronomy

Oct. 28, 2012 Rise Set
Actual Time 7:29 AM CDT 6:17 PM CDT
Civil Twilight 7:03 AM CDT 6:43 PM CDT
Nautical Twilight 6:32 AM CDT 7:13 PM CDT
Astronomical Twilight 6:02 AM CDT 7:43 PM CDT
Moon 5:35 PM CDT (10/28) 6:23 AM CDT (10/28)
Length of Visible Light 11h 40m
Length of Day
10h 47m
Waxing Gibbous, 99% of the Moon is Illuminated
Oct 28
Waxing Gibbous
Oct 29
Full
Nov 6
Last Quarter
Nov 13
New
Nov 20
First Quarter

Hourly Weather History & Observations

Time (CDT) Temp. Windchill Dew Point Humidity Pressure Visibility Wind Dir Wind Speed Gust Speed Precip Events Conditions
12:53 AM 37.9 °F 35.5 °F 28.0 °F 68% 30.22 in 10.0 mi NNE 3.5 mph - N/A   Clear
1:53 AM 37.0 °F 34.5 °F 28.0 °F 70% 30.22 in 10.0 mi Variable 3.5 mph - N/A   Clear
2:53 AM 35.1 °F - 28.0 °F 76% 30.24 in 10.0 mi Calm Calm - N/A   Clear
3:53 AM 30.9 °F - 28.0 °F 89% 30.24 in 10.0 mi Calm Calm - N/A   Clear
4:53 AM 30.9 °F 27.5 °F 28.0 °F 89% 30.24 in 9.0 mi NNW 3.5 mph - N/A   Clear
5:53 AM 28.9 °F - 27.0 °F 92% 30.24 in 9.0 mi Calm Calm - N/A   Clear
6:53 AM 28.9 °F - 27.0 °F 92% 30.25 in 8.0 mi Calm Calm - N/A   Clear
7:53 AM 28.9 °F - 27.0 °F 92% 30.26 in 6.0 mi Calm Calm - N/A   Clear
8:53 AM 34.0 °F - 28.9 °F 82% 30.28 in 8.0 mi Calm Calm - N/A   Clear
9:53 AM 39.9 °F 37.8 °F 30.0 °F 68% 30.28 in 9.0 mi Variable 3.5 mph - N/A   Clear
10:53 AM 44.1 °F 41.5 °F 28.9 °F 55% 30.28 in 9.0 mi Variable 4.6 mph - N/A   Clear
12:53 PM 50.0 °F - 25.0 °F 38% 30.25 in 10.0 mi Variable 6.9 mph - N/A   Clear
1:53 PM 54.0 °F - 25.0 °F 33% 30.22 in 10.0 mi NW 9.2 mph - N/A   Clear
2:53 PM 54.0 °F - 23.0 °F 30% 30.20 in 10.0 mi Variable 4.6 mph - N/A   Clear
3:53 PM 55.0 °F - 21.0 °F 27% 30.20 in 10.0 mi North 4.6 mph - N/A   Clear
4:53 PM 55.0 °F - 23.0 °F 29% 30.19 in 10.0 mi Variable 4.6 mph - N/A   Clear
5:53 PM 52.0 °F - 24.1 °F 34% 30.19 in 10.0 mi Calm Calm - N/A   Clear
6:53 PM 46.0 °F - 26.1 °F 46% 30.22 in 10.0 mi Calm Calm - N/A   Clear
8:53 PM 43.0 °F - 25.0 °F 49% 30.25 in 10.0 mi Calm Calm - N/A   Clear
9:53 PM 43.0 °F 41.3 °F 25.0 °F 49% 30.25 in 10.0 mi NNE 3.5 mph - N/A   Clear
10:53 PM 42.1 °F 39.2 °F 25.0 °F 51% 30.26 in 10.0 mi Variable 4.6 mph - N/A   Clear
11:53 PM 41.0 °F 38.0 °F 25.0 °F 53% 30.25 in 10.0 mi NNE 4.6 mph - N/A   Clear